Location: Cheadle
(51.0146°N, 113.5417°W)
Time: 02:32:28
(UTC+00:00)

BlueWalker 3 - Visible Passes

Search period start: 16 April 2024 00:00
Search period end: 26 April 2024 00:00
Orbit: 485 x 496 km, 53.2° (Epoch: 15 April)

Date Brightness Start Highest point End Pass type
(mag) Time Alt. Az. Time Alt. Az. Time Alt. Az.
16 Apr 2.6 10:39:36 34° SSW 10:39:36 34° SSW 10:42:39 10° SSE visible
17 Apr 3.5 03:39:38 10° S 03:42:03 16° SE 03:42:28 16° SE visible
17 Apr 3.9 05:15:57 10° SW 05:17:04 18° SW 05:17:04 18° SW visible
17 Apr 4.4 10:18:00 11° SSE 10:18:00 11° SSE 10:18:09 10° SSE visible
18 Apr 3.6 03:15:12 10° S 03:17:31 16° SE 03:19:51 10° E visible
18 Apr 1.8 04:51:24 10° SW 04:55:11 62° SSE 04:55:29 59° SE visible
18 Apr 4.6 06:29:40 10° W 06:30:01 12° W 06:30:01 12° W visible
19 Apr 1.9 04:26:51 10° SW 04:30:36 60° SSE 04:33:08 20° ENE visible
19 Apr 3.1 06:05:06 10° W 06:07:37 38° WNW 06:07:37 38° WNW visible
20 Apr 1.9 04:02:18 10° SW 04:06:02 58° SSE 04:09:49 10° ENE visible
20 Apr 2.2 05:40:31 10° W 05:44:19 64° N 05:44:40 60° NNE visible
20 Apr 4.7 07:18:58 10° WNW 07:19:07 11° WNW 07:19:07 11° WNW visible
21 Apr 2.0 03:37:42 10° SW 03:41:26 56° SSE 03:45:12 10° ENE visible
21 Apr 2.2 05:15:54 10° W 05:19:43 65° N 05:21:20 32° ENE visible
21 Apr 4.0 06:54:22 10° WNW 06:55:47 21° WNW 06:55:47 21° WNW visible
22 Apr 2.1 03:13:06 10° SW 03:16:50 54° SSE 03:20:35 10° ENE visible
22 Apr 2.2 04:51:16 10° W 04:55:05 65° N 04:57:47 18° ENE visible
22 Apr 3.2 06:29:44 10° WNW 06:32:12 37° WNW 06:32:12 37° WNW visible
23 Apr 2.2 04:26:38 10° W 04:30:27 66° N 04:34:06 11° ENE visible
23 Apr 2.3 06:05:06 10° WNW 06:08:31 62° NW 06:08:31 62° NW visible
24 Apr 2.2 04:01:59 10° W 04:05:48 67° N 04:09:37 10° ENE visible
24 Apr 2.1 05:40:27 10° WNW 05:44:17 69° N 05:44:44 61° ENE visible
24 Apr 4.6 07:18:47 10° WNW 07:19:09 12° WNW 07:19:09 12° WNW visible
25 Apr 2.2 03:37:19 10° W 03:41:08 68° N 03:44:57 10° ENE visible
25 Apr 2.1 05:15:47 10° WNW 05:19:36 68° N 05:20:52 39° E visible
25 Apr 4.1 06:54:06 10° WNW 06:55:17 19° W 06:55:17 19° W visible
